| time (UTC) | temp C | wind direction | speed KPH | gust KPH | rain 1hr cm | rain 24hr cm | rain mn cm | humidity % | barometer mb |
| 20260502161106 | 20 | 291 | 1.6 | 8.0 | 0.00 | 0.00 | 0.00 | 50 | 1012.2 |
| 20260502160606 | 20 | 228 | 1.6 | 11.3 | 0.00 | 0.00 | 0.00 | 50 | 1012.2 |
| 20260502160105 | 20 | 210 | 4.8 | 11.3 | 0.00 | 0.00 | 0.00 | 50 | 1012.2 |
| 20260502151605 | 20 | 236 | 1.6 | 9.7 | 0.00 | 0.00 | 0.00 | 49 | 1012.6 |
| 20260502151105 | 20 | 354 | 3.2 | 9.7 | 0.00 | 0.00 | 0.00 | 49 | 1012.6 |
| 20260502150605 | 20 | 244 | 4.8 | 11.3 | 0.00 | 0.00 | 0.00 | 49 | 1012.7 |
| 20260502150106 | 20 | 296 | 8.0 | 11.3 | 0.00 | 0.00 | 0.00 | 49 | 1012.7 |
| 20260502140108 | 20 | 229 | 3.2 | 9.7 | 0.00 | 0.00 | 0.00 | 51 | 1013.2 |
| 20260502130607 | 20 | 272 | 3.2 | 14.5 | 0.00 | 0.00 | 0.00 | 52 | 1013.7 |
| 20260502130107 | 20 | 220 | 4.8 | 14.5 | 0.00 | 0.00 | 0.00 | 52 | 1013.8 |
| 20260502123607 | 20 | 215 | 9.7 | 16.1 | 0.00 | 0.00 | 0.00 | 54 | 1014.2 |
| 20260502123107 | 20 | 281 | 8.0 | 19.3 | 0.00 | 0.00 | 0.00 | 53 | 1014.2 |
| 20260502121608 | 20 | 224 | 3.2 | 27.4 | 0.00 | 0.00 | 0.00 | 54 | 1014.6 |
| 20260502121107 | 20 | 212 | 9.7 | 27.4 | 0.00 | 0.00 | 0.00 | 54 | 1014.6 |
| 20260502120607 | 19 | 217 | 6.4 | 27.4 | 0.00 | 0.00 | 0.00 | 55 | 1014.7 |
| 20260502120107 | 19 | 220 | 3.2 | 19.3 | 0.00 | 0.00 | 0.00 | 56 | 1014.7 |
| 20260502114607 | 18 | 229 | 4.8 | 19.3 | 0.00 | 0.00 | 0.00 | 57 | 1014.5 |
| 20260502114107 | 18 | 223 | 6.4 | 16.1 | 0.00 | 0.00 | 0.00 | 58 | 1014.5 |
| 20260502113107 | 18 | 277 | 3.2 | 12.9 | 0.00 | 0.00 | 0.00 | 59 | 1014.6 |
| 20260502111608 | 18 | 261 | 3.2 | 22.5 | 0.00 | 0.00 | 0.00 | 60 | 1014.6 |
| 20260502111107 | 18 | 253 | 3.2 | 22.5 | 0.00 | 0.00 | 0.00 | 60 | 1014.6 |
| 20260502110607 | 18 | 282 | 6.4 | 19.3 | 0.00 | 0.00 | 0.00 | 60 | 1014.7 |
| 20260502110107 | 17 | 251 | 4.8 | 19.3 | 0.00 | 0.00 | 0.00 | 61 | 1014.7 |
| 20260502104608 | 17 | 261 | 8.0 | 19.3 | 0.00 | 0.00 | 0.00 | 62 | 1014.9 |
| 20260502103607 | 17 | 280 | 8.0 | 19.3 | 0.00 | 0.00 | 0.00 | 63 | 1015.0 |
| 20260502101609 | 16 | 276 | 4.8 | 16.1 | 0.00 | 0.00 | 0.00 | 64 | 1015.0 |
| 20260502100607 | 16 | 224 | 8.0 | 19.3 | 0.00 | 0.00 | 0.00 | 64 | 1015.1 |
| 20260502100108 | 17 | 283 | 9.7 | 19.3 | 0.00 | 0.00 | 0.00 | 64 | 1015.2 |
| 20260502090607 | 16 | 269 | 8.0 | 20.9 | 0.00 | 0.00 | 0.00 | 66 | 1015.5 |
| 20260502090107 | 16 | 267 | 8.0 | 19.3 | 0.00 | 0.00 | 0.00 | 66 | 1015.4 |
| 20260502080108 | 15 | 279 | 4.8 | 16.1 | 0.00 | 0.00 | 0.00 | 68 | 1015.3 |
| 20260502071107 | 13 | 278 | 4.8 | 14.5 | 0.00 | 0.00 | 0.00 | 73 | 1015.3 |
| 20260502070607 | 13 | 262 | 4.8 | 14.5 | 0.00 | 0.00 | 0.00 | 73 | 1015.4 |
| 20260502070108 | 13 | 286 | 8.0 | 14.5 | 0.00 | 0.00 | 0.00 | 73 | 1015.3 |
| 20260502064608 | 13 | 279 | 6.4 | 14.5 | 0.00 | 0.00 | 0.00 | 73 | 1015.3 |
| 20260502064108 | 13 | 279 | 4.8 | 14.5 | 0.00 | 0.00 | 0.00 | 73 | 1015.3 |
| 20260502061607 | 13 | 275 | 3.2 | 16.1 | 0.00 | 0.00 | 0.00 | 76 | 1015.4 |
| 20260502061108 | 13 | 286 | 3.2 | 16.1 | 0.00 | 0.00 | 0.00 | 76 | 1015.5 |
| 20260502060607 | 13 | 271 | 4.8 | 16.1 | 0.00 | 0.00 | 0.00 | 76 | 1015.4 |
| 20260502060108 | 13 | 248 | 3.2 | 11.3 | 0.00 | 0.00 | 0.00 | 76 | 1015.4 |
| 20260502053607 | 12 | 285 | 4.8 | 14.5 | 0.00 | 0.00 | 0.00 | 79 | 1015.4 |
| 20260502053107 | 12 | 282 | 8.0 | 14.5 | 0.00 | 0.00 | 0.00 | 80 | 1015.4 |
| 20260502051607 | 11 | 286 | 3.2 | 19.3 | 0.00 | 0.00 | 0.00 | 81 | 1015.3 |
| 20260502051108 | 11 | 283 | 8.0 | 19.3 | 0.00 | 0.00 | 0.00 | 80 | 1015.3 |
| 20260502050608 | 11 | 276 | 4.8 | 19.3 | 0.00 | 0.00 | 0.00 | 81 | 1015.2 |
| 20260502050107 | 11 | 274 | 4.8 | 19.3 | 0.00 | 0.00 | 0.00 | 80 | 1015.2 |
| 20260502044608 | 12 | 283 | 6.4 | 12.9 | 0.00 | 0.00 | 0.00 | 80 | 1015.2 |
| 20260502044108 | 12 | 269 | 3.2 | 19.3 | 0.00 | 0.00 | 0.00 | 79 | 1015.2 |
| 20260502043607 | 12 | 280 | 8.0 | 19.3 | 0.00 | 0.00 | 0.00 | 79 | 1015.1 |
| 20260502043107 | 12 | 279 | 9.7 | 19.3 | 0.00 | 0.00 | 0.00 | 78 | 1015.2 |
| 20260502041607 | 12 | 281 | 3.2 | 11.3 | 0.00 | 0.00 | 0.00 | 78 | 1015.3 |
| 20260502041107 | 12 | 270 | 6.4 | 11.3 | 0.00 | 0.00 | 0.00 | 78 | 1015.3 |
| 20260502040607 | 12 | 302 | 3.2 | 9.7 | 0.00 | 0.00 | 0.00 | 79 | 1015.3 |
| 20260502040107 | 12 | 287 | 3.2 | 9.7 | 0.00 | 0.00 | 0.00 | 79 | 1015.3 |
| 20260502034607 | 12 | 288 | 4.8 | 12.9 | 0.00 | 0.00 | 0.00 | 79 | 1015.3 |
| 20260502034107 | 12 | 282 | 4.8 | 12.9 | 0.00 | 0.00 | 0.00 | 79 | 1015.4 |
| 20260502033607 | 12 | 278 | 4.8 | 11.3 | 0.00 | 0.00 | 0.00 | 79 | 1015.4 |
| 20260502033108 | 12 | 272 | 3.2 | 11.3 | 0.00 | 0.00 | 0.00 | 79 | 1015.4 |
| 20260502031608 | 13 | 275 | 6.4 | 12.9 | 0.00 | 0.00 | 0.00 | 78 | 1015.4 |
| 20260502031108 | 13 | 271 | 6.4 | 16.1 | 0.00 | 0.00 | 0.00 | 79 | 1015.4 |
| 20260502030608 | 13 | 276 | 8.0 | 16.1 | 0.00 | 0.00 | 0.00 | 79 | 1015.4 |
| 20260502024607 | 13 | 294 | 4.8 | 12.9 | 0.00 | 0.00 | 0.00 | 79 | 1015.5 |
| 20260502024107 | 13 | 264 | 4.8 | 11.3 | 0.00 | 0.00 | 0.00 | 80 | 1015.5 |
| 20260502023608 | 13 | 274 | 3.2 | 11.3 | 0.00 | 0.00 | 0.00 | 80 | 1015.5 |
| 20260502023107 | 13 | 285 | 4.8 | 11.3 | 0.00 | 0.00 | 0.00 | 80 | 1015.5 |
| 20260502021607 | 13 | 288 | 4.8 | 12.9 | 0.00 | 0.00 | 0.00 | 80 | 1015.6 |
| 20260502020608 | 13 | 267 | 6.4 | 16.1 | 0.00 | 0.00 | 0.00 | 80 | 1015.6 |
| 20260502020107 | 13 | 282 | 4.8 | 11.3 | 0.00 | 0.00 | 0.00 | 80 | 1015.6 |
| 20260502014608 | 13 | 303 | 1.6 | 4.8 | 0.00 | 0.00 | 0.00 | 79 | 1015.8 |
| 20260502013607 | 13 | 289 | 3.2 | 4.8 | 0.00 | 0.00 | 0.00 | 78 | 1015.8 |
| 20260502013107 | 13 | 286 | 3.2 | 4.8 | 0.00 | 0.00 | 0.00 | 78 | 1015.9 |
| 20260502011607 | 13 | 282 | 3.2 | 12.9 | 0.00 | 0.00 | 0.00 | 79 | 1015.9 |
| 20260502010607 | 13 | 278 | 4.8 | 12.9 | 0.00 | 0.00 | 0.00 | 79 | 1015.9 |
| 20260502010108 | 14 | 273 | 4.8 | 12.9 | 0.00 | 0.00 | 0.00 | 79 | 1015.9 |
| 20260502001607 | 14 | 260 | 3.2 | 9.7 | 0.00 | 0.00 | 0.00 | 77 | 1016.0 |
| 20260502001107 | 15 | 229 | 1.6 | 8.0 | 0.00 | 0.00 | 0.00 | 77 | 1016.1 |
| 20260502000108 | 15 | 213 | 3.2 | 11.3 | 0.00 | 0.00 | 0.00 | 76 | 1016.0 |
| 20260501234108 | 15 | 272 | 1.6 | 11.3 | 0.00 | 0.00 | 0.00 | 76 | 1016.0 |
| 20260501233608 | 15 | 222 | 3.2 | 11.3 | 0.00 | 0.00 | 0.00 | 76 | 1016.0 |
| 20260501233108 | 15 | 222 | 3.2 | 11.3 | 0.00 | 0.00 | 0.00 | 75 | 1016.1 |
| 20260501231107 | 15 | 285 | 3.2 | 4.8 | 0.00 | 0.00 | 0.00 | 74 | 1016.1 |
| 20260501230606 | 15 | 293 | 1.6 | 9.7 | 0.00 | 0.00 | 0.00 | 74 | 1016.1 |
| 20260501230107 | 15 | 251 | 3.2 | 9.7 | 0.00 | 0.00 | 0.00 | 74 | 1016.1 |
| 20260501224108 | 15 | 272 | 4.8 | 14.5 | 0.00 | 0.00 | 0.00 | 72 | 1016.0 |
| 20260501223607 | 15 | 283 | 3.2 | 8.0 | 0.00 | 0.00 | 0.00 | 72 | 1016.1 |
| 20260501221608 | 16 | 277 | 6.4 | 14.5 | 0.00 | 0.00 | 0.00 | 70 | 1016.2 |
| 20260501220607 | 16 | 290 | 6.4 | 12.9 | 0.00 | 0.00 | 0.00 | 69 | 1016.2 |
| 20260501214607 | 16 | 278 | 8.0 | 14.5 | 0.00 | 0.00 | 0.00 | 68 | 1016.1 |
| 20260501214108 | 16 | 275 | 6.4 | 14.5 | 0.00 | 0.00 | 0.00 | 67 | 1016.1 |
| 20260501213607 | 16 | 288 | 4.8 | 12.9 | 0.00 | 0.00 | 0.00 | 67 | 1016.0 |
| 20260501211608 | 15 | 283 | 3.2 | 12.9 | 0.00 | 0.00 | 0.00 | 72 | 1015.9 |
| 20260501211108 | 15 | 282 | 3.2 | 12.9 | 0.00 | 0.00 | 0.00 | 73 | 1015.9 |
| 20260501210607 | 15 | 286 | 4.8 | 12.9 | 0.00 | 0.00 | 0.00 | 74 | 1015.8 |
| 20260501210107 | 15 | 269 | 1.6 | 4.8 | 0.00 | 0.00 | 0.00 | 74 | 1015.9 |
| 20260501204607 | 15 | 307 | 1.6 | 4.8 | 0.00 | 0.00 | 0.00 | 75 | 1015.9 |
| 20260501203608 | 14 | 288 | 4.8 | 11.3 | 0.00 | 0.00 | 0.00 | 77 | 1016.1 |
| 20260501203107 | 14 | 276 | 0.0 | 4.8 | 0.00 | 0.00 | 0.00 | 77 | 1015.7 |
| 20260501201607 | 14 | 100 | 3.2 | 4.8 | 0.00 | 0.00 | 0.00 | 77 | 1015.7 |
| 20260501200108 | 15 | 112 | 3.2 | 4.8 | 0.00 | 0.00 | 0.00 | 75 | 1015.7 |
| 20260501194607 | 15 | 126 | 3.2 | 8.0 | 0.00 | 0.00 | 0.00 | 74 | 1015.7 |
| 20260501194107 | 15 | 139 | 3.2 | 9.7 | 0.00 | 0.00 | 0.00 | 73 | 1015.8 |
| 20260501193607 | 15 | 106 | 3.2 | 9.7 | 0.00 | 0.00 | 0.00 | 73 | 1015.7 |
| 20260501193107 | 15 | 117 | 1.6 | 9.7 | 0.00 | 0.00 | 0.00 | 72 | 1015.7 |
| 20260501191607 | 15 | 124 | 3.2 | 12.9 | 0.00 | 0.00 | 0.00 | 70 | 1015.7 |
| 20260501190607 | 15 | 109 | 6.4 | 11.3 | 0.00 | 0.00 | 0.00 | 70 | 1015.7 |
| 20260501190107 | 15 | 110 | 4.8 | 11.3 | 0.00 | 0.00 | 0.00 | 69 | 1015.7 |
| 20260501184607 | 16 | 128 | 3.2 | 12.9 | 0.00 | 0.00 | 0.00 | 69 | 1015.8 |
| 20260501184107 | 16 | 129 | 4.8 | 12.9 | 0.00 | 0.00 | 0.00 | 69 | 1015.8 |
| 20260501183608 | 16 | 118 | 4.8 | 16.1 | 0.00 | 0.00 | 0.00 | 68 | 1015.7 |
| 20260501183108 | 16 | 112 | 8.0 | 16.1 | 0.00 | 0.00 | 0.00 | 68 | 1015.8 |
| 20260501181607 | 16 | 103 | 6.4 | 20.9 | 0.00 | 0.00 | 0.00 | 68 | 1015.8 |
| 20260501181107 | 16 | 124 | 9.7 | 20.9 | 0.00 | 0.00 | 0.00 | 67 | 1015.8 |
| 20260501180606 | 16 | 130 | 11.3 | 20.9 | 0.00 | 0.00 | 0.00 | 66 | 1015.8 |
| 20260501174606 | 16 | 135 | 11.3 | 24.1 | 0.00 | 0.00 | 0.00 | 64 | 1015.8 |
| 20260501174107 | 16 | 132 | 11.3 | 24.1 | 0.00 | 0.00 | 0.00 | 63 | 1015.9 |
| 20260501173607 | 17 | 118 | 14.5 | 24.1 | 0.00 | 0.00 | 0.00 | 63 | 1015.9 |
| 20260501173107 | 17 | 108 | 12.9 | 24.1 | 0.00 | 0.00 | 0.00 | 62 | 1015.9 |
| 20260501171607 | 17 | 139 | 8.0 | 22.5 | 0.00 | 0.00 | 0.00 | 61 | 1016.0 |
| 20260501171108 | 17 | 129 | 11.3 | 24.1 | 0.00 | 0.00 | 0.00 | 60 | 1016.0 |
| 20260501170607 | 17 | 128 | 11.3 | 24.1 | 0.00 | 0.00 | 0.00 | 59 | 1016.0 |
| 20260501170107 | 17 | 124 | 9.7 | 22.5 | 0.00 | 0.00 | 0.00 | 58 | 1016.0 |
| 20260501164607 | 17 | 127 | 12.9 | 24.1 | 0.00 | 0.00 | 0.00 | 56 | 1016.1 |
| 20260501164107 | 17 | 130 | 11.3 | 25.7 | 0.00 | 0.00 | 0.00 | 55 | 1016.2 |
| 20260501163107 | 18 | 117 | 14.5 | 25.7 | 0.00 | 0.00 | 0.00 | 55 | 1016.2 |
| 20260501161607 | 18 | 129 | 14.5 | 24.1 | 0.00 | 0.00 | 0.00 | 52 | 1016.3 |